Weather History for Lakehurst NAS, NJ

Change the Weather History Date:

Saturday, January 19, 2013

  Actual Average Record
Temperature  
Mean Temperature 38 °F -  
Max Temperature 39 °F 36 °F - (-1)
Min Temperature 23 °F 26 °F - (-1)
Degree Days  
Heating Degree Days 28    
Moisture  
Dew Point 23 °F    
Average Humidity 55    
Maximum Humidity 72    
Minimum Humidity 34    
Precipitation  
Precipitation 0.00 in - - ()
Sea Level Pressure  
Sea Level Pressure 30.22 in    
Wind  
Wind Speed 9 mph (SW)    
Max Wind Speed 20 mph    
Max Gust Speed 29 mph    
Averages and records for this station are not official NWS values.
T = Trace of Precipitation, MM = Missing Value Source: NWS Daily Summary

Daily Weather History Graph

Daily Weather History Graph

Search for Another Location

Airport:

Trip Planner

Search our weather history database for the weather conditions in past years. The results will help you decide how hot, cold, wet, or windy it might be!

Date:

Astronomy

Jan. 19, 2013 Rise Set
Actual Time 7:15 AM EST 5:01 PM EST
Civil Twilight 6:46 AM EST 5:30 PM EST
Nautical Twilight 6:12 AM EST 6:04 PM EST
Astronomical Twilight 5:40 AM EST 6:36 PM EST
Moon 11:26 AM EST (1/19) 12:47 AM EST (1/19)
Length of Visible Light 10h 44m
Length of Day
9h 45m
First Quarter, 57% of the Moon is Illuminated
Jan 19
First Quarter
Jan 26
Full
Feb 3
Last Quarter
Feb 10
New
Feb 17
First Quarter

Hourly Weather History & Observations

Time (EST) Temp. Windchill Dew Point Humidity Pressure Visibility Wind Dir Wind Speed Gust Speed Precip Events Conditions
12:00 AM 23.0 °F 17.0 °F 14.0 °F 68% 30.43 in - SW 4.6 mph - N/A   Clear
1:00 AM 23.0 °F 18.4 °F 12.0 °F 63% 30.43 in - SSW 3.5 mph - N/A   Clear
2:00 AM 25.0 °F 20.7 °F 15.1 °F 66% 30.41 in - SSW 3.5 mph - N/A   Clear
3:00 AM 28.0 °F 21.7 °F 17.1 °F 63% 30.39 in - SSW 5.8 mph - N/A   Clear
4:00 AM 28.9 °F 21.1 °F 18.0 °F 64% 30.36 in - SSW 8.1 mph - N/A   Clear
5:00 AM 30.9 °F 21.7 °F 19.9 °F 64% 30.35 in - SSW 11.5 mph 19.6 mph N/A   Clear
6:00 AM 30.9 °F 22.2 °F 21.0 °F 67% 30.35 in - SSW 10.4 mph 17.3 mph N/A   Clear
8:00 AM 33.1 °F 24.4 °F 25.0 °F 72% 30.32 in - SSW 11.5 mph 20.7 mph N/A   Clear
9:00 AM 37.0 °F 28.5 °F 26.1 °F 65% 30.33 in - SW 13.8 mph 21.9 mph N/A   Clear
10:00 AM 41.0 °F 32.5 °F 26.1 °F 55% 30.32 in - SW 17.3 mph 23.0 mph N/A   Clear
11:00 AM 45.0 °F 37.4 °F 25.0 °F 46% 30.27 in - SW 18.4 mph 26.5 mph N/A   Clear
12:00 PM 48.0 °F - 24.1 °F 39% 30.22 in - SW 19.6 mph 28.8 mph N/A   Clear
1:00 PM 50.0 °F - 24.1 °F 36% 30.18 in - WSW 18.4 mph 25.3 mph N/A   Clear
2:00 PM 52.0 °F - 25.0 °F 35% 30.14 in - SW 12.7 mph 20.7 mph N/A   Clear
3:00 PM 52.0 °F - 24.1 °F 34% 30.12 in - SW 15.0 mph 26.5 mph N/A   Clear
4:00 PM 51.1 °F - 24.1 °F 35% 30.10 in - SW 15.0 mph 21.9 mph N/A   Clear
5:00 PM 48.0 °F - 26.1 °F 42% 30.09 in - SSW 8.1 mph - N/A   Clear
6:00 PM 44.1 °F 40.1 °F 26.1 °F 49% 30.09 in - SW 6.9 mph - N/A   Clear
7:00 PM 41.0 °F 37.1 °F 26.1 °F 55% 30.09 in - SSW 5.8 mph - N/A   Clear
8:00 PM 35.1 °F 31.0 °F 25.0 °F 67% 30.07 in - SSE 4.6 mph - N/A   Clear
9:00 PM 41.0 °F 33.9 °F 28.0 °F 60% 30.04 in - SSW 12.7 mph - N/A   Clear
10:00 PM 39.9 °F 32.9 °F 26.1 °F 58% 30.02 in - SW 11.5 mph - N/A   Clear
11:00 PM 37.9 °F 32.1 °F 27.0 °F 65% 29.99 in - SSW 8.1 mph - N/A   Clear